,,PressureMeas_1m,,PRMeasQMR101_1,,RHStat155_1m_1,,SRMeasQMS101R_1m,,TAStat155_1m_1,,GenWind_1,,GenWind_1,
2018-05-16, 00:00:06,VALID,916.471,VALID,0.0,VALID,96.89,VALID,0.017,VALID,21.249,VALID,263.0,VALID,0.0,
2018-05-16, 00:01:06,VALID,916.483,VALID,0.0,VALID,97.155,VALID,0.023,VALID,21.318,VALID,243.0,VALID,0.0,
2018-05-16, 00:02:06,VALID,916.51,VALID,0.0,VALID,97.259,VALID,0.02,VALID,21.339,VALID,235.0,VALID,0.0,
2018-05-16, 00:03:06,VALID,916.532,VALID,0.0,VALID,97.255,VALID,0.012,VALID,21.343,VALID,242.0,VALID,0.0,
2018-05-16, 00:04:06,VALID,916.576,VALID,0.0,VALID,97.428,VALID,-0.006,VALID,21.367,VALID,237.0,VALID,0.0,
2018-05-16, 00:05:06,VALID,916.591,VALID,0.0,VALID,97.563,VALID,-0.018,VALID,21.373,VALID,235.0,VALID,0.0,
2018-05-16, 00:06:06,VALID,916.608,VALID,0.0,VALID,97.721,VALID,-0.016,VALID,21.402,VALID,242.0,VALID,0.0,
2018-05-16, 00:07:06,VALID,916.61,VALID,0.0,VALID,97.697,VALID,0.006,VALID,21.411,VALID,233.0,VALID,0.0,
2018-05-16, 00:08:06,VALID,916.598,VALID,0.0,VALID,97.661,VALID,-0.005,VALID,21.417,VALID,232.0,VALID,0.0,
2018-05-16, 00:09:06,VALID,916.605,VALID,0.0,VALID,97.667,VALID,-0.011,VALID,21.399,VALID,236.0,VALID,0.0,
2018-05-16, 00:10:06,VALID,916.615,VALID,0.0,VALID,97.697,VALID,-0.003,VALID,21.391,VALID,237.0,VALID,0.0,
2018-05-16, 00:11:06,VALID,916.615,VALID,0.0,VALID,97.792,VALID,-0.009,VALID,21.395,VALID,234.0,VALID,0.0,
2018-05-16, 00:12:06,VALID,916.606,VALID,0.0,VALID,97.743,VALID,0.009,VALID,21.37,VALID,199.0,VALID,0.0,
2018-05-16, 00:13:06,VALID,916.624,VALID,0.0,VALID,97.689,VALID,0.013,VALID,21.337,VALID,195.0,VALID,0.0,
2018-05-16, 00:14:06,VALID,916.621,VALID,0.0,VALID,97.715,VALID,0.007,VALID,21.333,VALID,223.0,VALID,0.0,
2018-05-16, 00:15:06,VALID,916.614,VALID,0.0,VALID,97.82,VALID,0.005,VALID,21.334,VALID,235.0,VALID,0.0,
2018-05-16, 00:16:06,VALID,916.629,VALID,0.0,VALID,97.859,VALID,-0.011,VALID,21.325,VALID,176.0,VALID,0.0,
2018-05-16, 00:17:06,VALID,916.637,VALID,0.0,VALID,97.911,VALID,-0.005,VALID,21.32,VALID,170.0,VALID,0.0,
2018-05-16, 00:18:06,VALID,916.647,VALID,0.0,VALID,97.969,VALID,-0.026,VALID,21.315,VALID,174.0,VALID,0.0,
2018-05-16, 00:19:06,VALID,916.66,VALID,0.0,VALID,98.022,VALID,-0.034,VALID,21.323,VALID,173.0,VALID,0.0,
2018-05-16, 00:20:06,VALID,916.661,VALID,0.0,VALID,98.072,VALID,-0.03,VALID,21.338,VALID,174.0,VALID,0.0,
2018-05-16, 00:21:06,VALID,916.646,VALID,0.0,VALID,98.082,VALID,-0.032,VALID,21.352,VALID,202.0,VALID,0.0,
2018-05-16, 00:22:06,VALID,916.632,VALID,0.0,VALID,98.053,VALID,-0.033,VALID,21.331,VALID,232.0,VALID,0.0,
2018-05-16, 00:23:06,VALID,916.636,VALID,0.0,VALID,98.079,VALID,-0.022,VALID,21.359,VALID,239.0,VALID,0.0,
2018-05-16, 00:24:06,VALID,916.653,VALID,0.0,VALID,98.076,VALID,-0.033,VALID,21.38,VALID,231.0,VALID,0.0,
2018-05-16, 00:25:06,VALID,916.667,VALID,0.0,VALID,97.992,VALID,-0.022,VALID,21.369,VALID,221.0,VALID,0.0,
2018-05-16, 00:26:06,VALID,916.677,VALID,0.0,VALID,97.981,VALID,-0.022,VALID,21.361,VALID,220.0,VALID,0.0,
2018-05-16, 00:27:06,VALID,916.689,VALID,0.0,VALID,97.902,VALID,-0.042,VALID,21.33,VALID,218.0,VALID,0.0,
2018-05-16, 00:28:06,VALID,916.706,VALID,0.0,VALID,97.883,VALID,-0.041,VALID,21.308,VALID,175.0,VALID,0.0,
2018-05-16, 00:29:06,VALID,916.706,VALID,0.0,VALID,97.849,VALID,-0.026,VALID,21.273,VALID,180.0,VALID,0.0,
2018-05-16, 00:30:06,VALID,916.687,VALID,0.0,VALID,97.838,VALID,-0.015,VALID,21.262,VALID,181.0,VALID,0.0,
2018-05-16, 00:31:06,VALID,916.668,VALID,0.0,VALID,97.882,VALID,-0.04,VALID,21.266,VALID,176.0,VALID,0.0,
2018-05-16, 00:32:06,VALID,916.647,VALID,0.0,VALID,97.888,VALID,-0.042,VALID,21.25,VALID,169.0,VALID,0.0,
2018-05-16, 00:33:06,VALID,916.622,VALID,0.0,VALID,97.845,VALID,0.009,VALID,21.197,VALID,170.0,VALID,0.0,
2018-05-16, 00:34:06,VALID,916.591,VALID,0.0,VALID,97.862,VALID,0.022,VALID,21.173,VALID,169.0,VALID,0.0,
2018-05-16, 00:35:06,VALID,916.554,VALID,0.0,VALID,97.948,VALID,0.029,VALID,21.167,VALID,162.0,VALID,0.0,
2018-05-16, 00:36:06,VALID,916.531,VALID,0.0,VALID,98.028,VALID,0.016,VALID,21.17,VALID,175.0,VALID,0.0,
2018-05-16, 00:37:06,VALID,916.503,VALID,0.0,VALID,98.076,VALID,0.042,VALID,21.178,VALID,112.0,VALID,0.0,
2018-05-16, 00:38:06,VALID,916.506,VALID,0.0,VALID,98.158,VALID,0.038,VALID,21.213,VALID,121.0,VALID,0.0,
2018-05-16, 00:39:06,VALID,916.498,VALID,0.0,VALID,98.214,VALID,0.004,VALID,21.224,VALID,137.0,VALID,0.0,
2018-05-16, 00:40:06,VALID,916.505,VALID,0.0,VALID,98.233,VALID,0.02,VALID,21.224,VALID,107.0,VALID,0.0,
2018-05-16, 00:41:06,VALID,916.511,VALID,0.0,VALID,98.264,VALID,0.018,VALID,21.242,VALID,175.0,VALID,0.0,
2018-05-16, 00:42:06,VALID,916.516,VALID,0.0,VALID,98.346,VALID,0.018,VALID,21.28,VALID,221.0,VALID,0.0,
2018-05-16, 00:43:06,VALID,916.527,VALID,0.0,VALID,98.312,VALID,0.033,VALID,21.278,VALID,317.0,VALID,0.0,
2018-05-16, 00:44:06,VALID,916.524,VALID,0.0,VALID,98.256,VALID,0.023,VALID,21.231,VALID,4.0,VALID,0.0,
2018-05-16, 00:45:06,VALID,916.508,VALID,0.0,VALID,98.298,VALID,0.029,VALID,21.233,VALID,346.0,VALID,0.0,
2018-05-16, 00:46:06,VALID,916.487,VALID,0.0,VALID,98.317,VALID,0.04,VALID,21.25,VALID,341.0,VALID,0.0,
2018-05-16, 00:47:06,VALID,916.46,VALID,0.0,VALID,98.349,VALID,0.038,VALID,21.263,VALID,341.0,VALID,0.0,
2018-05-16, 00:48:06,VALID,916.452,VALID,0.0,VALID,98.359,VALID,0.015,VALID,21.273,VALID,341.0,VALID,0.0,
2018-05-16, 00:49:06,VALID,916.443,VALID,0.0,VALID,98.362,VALID,0.009,VALID,21.295,VALID,341.0,VALID,0.0,
2018-05-16, 00:50:06,VALID,916.445,VALID,0.0,VALID,98.263,VALID,0.006,VALID,21.243,VALID,358.0,VALID,0.0,
2018-05-16, 00:51:06,VALID,916.461,VALID,0.0,VALID,98.25,VALID,-0.002,VALID,21.226,VALID,49.0,VALID,0.0,
2018-05-16, 00:52:06,VALID,916.453,VALID,0.0,VALID,98.257,VALID,0.004,VALID,21.229,VALID,46.0,VALID,0.0,
2018-05-16, 00:53:06,VALID,916.427,VALID,0.0,VALID,98.218,VALID,0.006,VALID,21.203,VALID,35.0,VALID,0.0,
2018-05-16, 00:54:06,VALID,916.402,VALID,0.0,VALID,98.223,VALID,-0.022,VALID,21.196,VALID,26.0,VALID,0.0,
2018-05-16, 00:55:06,VALID,916.376,VALID,0.0,VALID,98.26,VALID,0.003,VALID,21.201,VALID,1.0,VALID,0.0,
2018-05-16, 00:56:06,VALID,916.345,VALID,0.0,VALID,98.304,VALID,-0.004,VALID,21.2,VALID,352.0,VALID,0.0,
2018-05-16, 00:57:06,VALID,916.284,VALID,0.0,VALID,98.298,VALID,-0.008,VALID,21.192,VALID,346.0,VALID,0.0,
2018-05-16, 00:58:06,VALID,916.262,VALID,0.0,VALID,98.38,VALID,0.009,VALID,21.217,VALID,352.0,VALID,0.0,
2018-05-16, 00:59:06,VALID,916.249,VALID,0.0,VALID,98.392,VALID,-0.008,VALID,21.228,VALID,357.0,VALID,0.0,
2018-05-16, 01:00:06,VALID,916.233,VALID,0.0,VALID,98.333,VALID,-0.005,VALID,21.188,VALID,14.0,VALID,0.0,
2018-05-16, 01:01:06,VALID,916.212,VALID,0.0,VALID,98.337,VALID,0.001,VALID,21.162,VALID,7.0,VALID,0.0,
2018-05-16, 01:02:06,VALID,916.186,VALID,0.0,VALID,98.383,VALID,-0.017,VALID,21.174,VALID,349.0,VALID,0.0,
2018-05-16, 01:03:06,VALID,916.168,VALID,0.0,VALID,98.397,VALID,0.01,VALID,21.177,VALID,336.0,VALID,0.0,
2018-05-16, 01:04:06,VALID,916.155,VALID,0.0,VALID,98.434,VALID,0.023,VALID,21.196,VALID,314.0,VALID,0.0,
2018-05-16, 01:05:06,VALID,916.164,VALID,0.0,VALID,98.446,VALID,0.027,VALID,21.204,VALID,316.0,VALID,0.0,
2018-05-16, 01:06:06,VALID,916.196,VALID,0.0,VALID,98.455,VALID,0.007,VALID,21.214,VALID,35.0,VALID,0.0,
2018-05-16, 01:07:06,VALID,916.216,VALID,0.0,VALID,98.426,VALID,-0.004,VALID,21.19,VALID,69.0,VALID,0.0,
2018-05-16, 01:08:06,VALID,916.211,VALID,0.0,VALID,98.329,VALID,-0.003,VALID,21.113,VALID,89.0,VALID,0.0,
2018-05-16, 01:09:06,VALID,916.215,VALID,0.0,VALID,98.344,VALID,0.032,VALID,21.078,VALID,94.0,VALID,0.0,
2018-05-16, 01:10:06,VALID,916.209,VALID,0.0,VALID,98.408,VALID,0.023,VALID,21.094,VALID,82.0,VALID,0.0,
2018-05-16, 01:11:06,VALID,916.198,VALID,0.0,VALID,98.457,VALID,0.01,VALID,21.124,VALID,78.0,VALID,0.0,
2018-05-16, 01:12:06,VALID,916.177,VALID,0.0,VALID,98.477,VALID,0.0,VALID,21.143,VALID,78.0,VALID,0.0,
2018-05-16, 01:13:06,VALID,916.159,VALID,0.0,VALID,98.42,VALID,0.018,VALID,21.118,VALID,75.0,VALID,0.0,
2018-05-16, 01:14:06,VALID,916.14,VALID,0.0,VALID,98.451,VALID,0.009,VALID,21.105,VALID,68.0,VALID,0.0,
2018-05-16, 01:15:06,VALID,916.102,VALID,0.0,VALID,98.381,VALID,0.02,VALID,21.054,VALID,68.0,VALID,0.0,
2018-05-16, 01:16:06,VALID,916.054,VALID,0.0,VALID,98.387,VALID,-0.003,VALID,21.036,VALID,68.0,VALID,0.0,
2018-05-16, 01:17:06,VALID,916.015,VALID,0.0,VALID,98.466,VALID,-0.004,VALID,21.057,VALID,68.0,VALID,0.0,
2018-05-16, 01:18:06,VALID,915.996,VALID,0.0,VALID,98.444,VALID,0.014,VALID,21.039,VALID,68.0,VALID,0.0,
2018-05-16, 01:19:06,VALID,915.974,VALID,0.0,VALID,98.43,VALID,0.013,VALID,21.006,VALID,75.0,VALID,0.0,
2018-05-16, 01:20:06,VALID,915.963,VALID,0.0,VALID,98.438,VALID,0.015,VALID,20.983,VALID,90.0,VALID,0.0,
2018-05-16, 01:21:06,VALID,915.956,VALID,0.0,VALID,98.463,VALID,0.007,VALID,20.966,VALID,96.0,VALID,0.0,
2018-05-16, 01:22:06,VALID,915.915,VALID,0.0,VALID,98.512,VALID,0.013,VALID,20.976,VALID,107.0,VALID,0.0,
2018-05-16, 01:23:06,VALID,915.89,VALID,0.0,VALID,98.551,VALID,0.013,VALID,20.979,VALID,120.0,VALID,0.0,
2018-05-16, 01:24:06,VALID,915.864,VALID,0.0,VALID,98.588,VALID,0.0,VALID,20.978,VALID,126.0,VALID,0.0,
2018-05-16, 01:25:06,VALID,915.83,VALID,0.0,VALID,98.617,VALID,0.007,VALID,20.992,VALID,136.0,VALID,0.0,
2018-05-16, 01:26:06,VALID,915.812,VALID,0.0,VALID,98.649,VALID,0.007,VALID,21.013,VALID,134.0,VALID,0.0,
2018-05-16, 01:27:06,VALID,915.8,VALID,0.0,VALID,98.652,VALID,0.012,VALID,20.995,VALID,118.0,VALID,0.0,
2018-05-16, 01:28:06,VALID,915.777,VALID,0.0,VALID,98.62,VALID,0.005,VALID,20.964,VALID,104.0,VALID,0.0,
2018-05-16, 01:29:06,VALID,915.771,VALID,0.0,VALID,98.664,VALID,0.015,VALID,20.968,VALID,91.0,VALID,0.0,
2018-05-16, 01:30:06,VALID,915.76,VALID,0.0,VALID,98.664,VALID,0.016,VALID,20.939,VALID,97.0,VALID,0.0,
2018-05-16, 01:31:06,VALID,915.761,VALID,0.0,VALID,98.67,VALID,0.015,VALID,20.929,VALID,97.0,VALID,0.0,
2018-05-16, 01:32:06,VALID,915.75,VALID,0.0,VALID,98.688,VALID,0.032,VALID,20.924,VALID,104.0,VALID,0.0,
2018-05-16, 01:33:06,VALID,915.731,VALID,0.0,VALID,98.718,VALID,-0.005,VALID,20.94,VALID,122.0,VALID,0.0,
2018-05-16, 01:34:06,VALID,915.702,VALID,0.0,VALID,98.741,VALID,-0.001,VALID,20.959,VALID,126.0,VALID,0.0,
2018-05-16, 01:35:06,VALID,915.687,VALID,0.0,VALID,98.791,VALID,-0.007,VALID,20.989,VALID,128.0,VALID,0.0,
2018-05-16, 01:36:06,VALID,915.682,VALID,0.0,VALID,98.757,VALID,-0.005,VALID,20.974,VALID,116.0,VALID,0.0,
2018-05-16, 01:37:06,VALID,915.658,VALID,0.0,VALID,98.75,VALID,-0.026,VALID,20.961,VALID,116.0,VALID,0.0,
2018-05-16, 01:38:06,VALID,915.646,VALID,0.0,VALID,98.76,VALID,-0.025,VALID,20.948,VALID,138.0,VALID,0.0,
2018-05-16, 01:39:06,VALID,915.629,VALID,0.0,VALID,98.769,VALID,-0.019,VALID,20.974,VALID,133.0,VALID,0.0,
2018-05-16, 01:40:06,VALID,915.614,VALID,0.0,VALID,98.777,VALID,-0.018,VALID,20.963,VALID,135.0,VALID,0.0,
2018-05-16, 01:41:06,VALID,915.605,VALID,0.0,VALID,98.78,VALID,-0.009,VALID,20.945,VALID,130.0,VALID,0.0,
2018-05-16, 01:42:06,VALID,915.603,VALID,0.0,VALID,98.794,VALID,-0.019,VALID,20.96,VALID,128.0,VALID,0.0,
2018-05-16, 01:43:06,VALID,915.581,VALID,0.0,VALID,98.804,VALID,-0.012,VALID,20.965,VALID,128.0,VALID,0.0,
2018-05-16, 01:44:06,VALID,915.56,VALID,0.0,VALID,98.796,VALID,-0.002,VALID,20.953,VALID,114.0,VALID,0.0,
2018-05-16, 01:45:06,VALID,915.529,VALID,0.0,VALID,98.8,VALID,0.003,VALID,20.941,VALID,112.0,VALID,0.0,
2018-05-16, 01:46:06,VALID,915.503,VALID,0.0,VALID,98.806,VALID,0.005,VALID,20.937,VALID,131.0,VALID,0.0,
2018-05-16, 01:47:06,VALID,915.489,VALID,0.0,VALID,98.823,VALID,-0.007,VALID,20.965,VALID,133.0,VALID,0.0,
2018-05-16, 01:48:06,VALID,915.488,VALID,0.0,VALID,98.843,VALID,-0.004,VALID,21.009,VALID,131.0,VALID,0.0,
2018-05-16, 01:49:06,VALID,915.482,VALID,0.0,VALID,98.793,VALID,-0.009,VALID,20.96,VALID,110.0,VALID,0.0,
2018-05-16, 01:50:06,VALID,915.471,VALID,0.0,VALID,98.802,VALID,-0.004,VALID,20.916,VALID,111.0,VALID,0.0,
2018-05-16, 01:51:06,VALID,915.438,VALID,0.0,VALID,98.816,VALID,-0.004,VALID,20.935,VALID,156.0,VALID,0.0,
2018-05-16, 01:52:06,VALID,915.418,VALID,0.0,VALID,98.845,VALID,-0.011,VALID,20.952,VALID,193.0,VALID,0.0,
2018-05-16, 01:53:06,VALID,915.404,VALID,0.0,VALID,98.843,VALID,-0.019,VALID,20.943,VALID,210.0,VALID,0.0,
2018-05-16, 01:54:06,VALID,915.372,VALID,0.0,VALID,98.827,VALID,-0.014,VALID,20.947,INVALID,360.0,VALID,0.0,
2018-05-16, 01:55:06,VALID,915.35,VALID,0.0,VALID,98.846,VALID,-0.02,VALID,20.949,INVALID,360.0,VALID,0.0,
2018-05-16, 01:56:06,VALID,915.343,VALID,0.0,VALID,98.827,VALID,-0.001,VALID,20.947,VALID,261.0,VALID,0.0,
2018-05-16, 01:57:06,VALID,915.338,VALID,0.0,VALID,98.806,VALID,-0.0,VALID,20.93,VALID,279.0,VALID,0.0,
2018-05-16, 01:58:06,VALID,915.322,VALID,0.0,VALID,98.795,VALID,0.015,VALID,20.894,VALID,7.0,VALID,0.0,
2018-05-16, 01:59:06,VALID,915.323,VALID,0.0,VALID,98.785,VALID,0.005,VALID,20.858,VALID,25.0,VALID,0.0,
2018-05-16, 02:00:06,VALID,915.313,VALID,0.0,VALID,98.792,VALID,0.008,VALID,20.827,VALID,28.0,VALID,0.0,
2018-05-16, 02:01:06,VALID,915.319,VALID,0.0,VALID,98.774,VALID,0.011,VALID,20.803,VALID,29.0,VALID,0.0,
2018-05-16, 02:02:06,VALID,915.318,VALID,0.0,VALID,98.794,VALID,0.0,VALID,20.793,VALID,58.0,VALID,0.0,
2018-05-16, 02:03:06,VALID,915.311,VALID,0.0,VALID,98.801,VALID,-0.0,VALID,20.766,VALID,69.0,VALID,0.0,
2018-05-16, 02:04:06,VALID,915.314,VALID,0.0,VALID,98.791,VALID,-0.006,VALID,20.754,VALID,69.0,VALID,0.0,
2018-05-16, 02:05:06,VALID,915.319,VALID,0.0,VALID,98.813,VALID,0.007,VALID,20.761,VALID,69.0,VALID,0.0,
2018-05-16, 02:06:06,VALID,915.324,VALID,0.0,VALID,98.792,VALID,0.015,VALID,20.736,VALID,51.0,VALID,0.0,
2018-05-16, 02:07:06,VALID,915.319,VALID,0.0,VALID,98.712,VALID,0.008,VALID,20.643,VALID,48.0,VALID,0.0,
2018-05-16, 02:08:06,VALID,915.304,VALID,0.0,VALID,98.715,VALID,0.015,VALID,20.597,VALID,50.0,VALID,0.0,
2018-05-16, 02:09:06,VALID,915.303,VALID,0.0,VALID,98.756,VALID,0.011,VALID,20.584,VALID,64.0,VALID,0.0,
2018-05-16, 02:10:06,VALID,915.275,VALID,0.0,VALID,98.786,VALID,0.002,VALID,20.593,VALID,65.0,VALID,0.0,
2018-05-16, 02:11:06,VALID,915.264,VALID,0.0,VALID,98.815,VALID,0.015,VALID,20.617,VALID,65.0,VALID,0.0,
2018-05-16, 02:12:06,VALID,915.238,VALID,0.0,VALID,98.798,VALID,0.013,VALID,20.603,VALID,80.0,VALID,0.0,
2018-05-16, 02:13:06,VALID,915.224,VALID,0.0,VALID,98.777,VALID,0.005,VALID,20.542,VALID,107.0,VALID,0.0,
2018-05-16, 02:14:06,VALID,915.203,VALID,0.0,VALID,98.764,VALID,0.005,VALID,20.523,VALID,110.0,VALID,0.0,
2018-05-16, 02:15:06,VALID,915.196,VALID,0.0,VALID,98.78,VALID,-0.011,VALID,20.523,VALID,112.0,VALID,0.0,
2018-05-16, 02:16:06,VALID,915.181,VALID,0.0,VALID,98.79,VALID,0.007,VALID,20.511,VALID,119.0,VALID,0.0,
2018-05-16, 02:17:06,VALID,915.18,VALID,0.0,VALID,98.852,VALID,0.013,VALID,20.585,VALID,114.0,VALID,0.0,
2018-05-16, 02:18:06,VALID,915.158,VALID,0.0,VALID,98.857,VALID,-0.013,VALID,20.607,VALID,109.0,VALID,0.0,
2018-05-16, 02:19:06,VALID,915.137,VALID,0.0,VALID,98.846,VALID,-0.031,VALID,20.584,VALID,110.0,VALID,0.0,
2018-05-16, 02:20:06,VALID,915.132,VALID,0.0,VALID,98.856,VALID,-0.012,VALID,20.59,VALID,120.0,VALID,0.0,
2018-05-16, 02:21:06,VALID,915.133,VALID,0.0,VALID,98.856,VALID,-0.017,VALID,20.6,VALID,117.0,VALID,0.0,
2018-05-16, 02:22:06,VALID,915.124,VALID,0.0,VALID,98.857,VALID,-0.002,VALID,20.599,VALID,112.0,VALID,0.0,
2018-05-16, 02:23:06,VALID,915.108,VALID,0.0,VALID,98.871,VALID,-0.009,VALID,20.596,VALID,117.0,VALID,0.0,
2018-05-16, 02:24:06,VALID,915.084,VALID,0.0,VALID,98.894,VALID,-0.01,VALID,20.637,VALID,119.0,VALID,0.0,
2018-05-16, 02:25:06,VALID,915.089,VALID,0.0,VALID,98.915,VALID,-0.022,VALID,20.672,VALID,116.0,VALID,0.0,
2018-05-16, 02:26:06,VALID,915.083,VALID,0.0,VALID,98.911,VALID,-0.021,VALID,20.666,VALID,124.0,VALID,0.0,
2018-05-16, 02:27:06,VALID,915.067,VALID,0.0,VALID,98.893,VALID,-0.016,VALID,20.674,VALID,132.0,VALID,0.0,
2018-05-16, 02:28:06,VALID,915.051,VALID,0.0,VALID,98.923,VALID,-0.008,VALID,20.69,VALID,152.0,VALID,0.0,
2018-05-16, 02:29:06,VALID,915.041,VALID,0.0,VALID,98.911,VALID,0.001,VALID,20.696,VALID,131.0,VALID,0.0,
2018-05-16, 02:30:06,VALID,915.028,VALID,0.0,VALID,98.936,VALID,-0.011,VALID,20.719,VALID,128.0,VALID,0.0,
2018-05-16, 02:31:06,VALID,914.994,VALID,0.0,VALID,98.938,VALID,-0.035,VALID,20.739,VALID,126.0,VALID,0.0,
2018-05-16, 02:32:06,VALID,914.983,VALID,0.0,VALID,98.94,VALID,-0.012,VALID,20.755,VALID,139.0,VALID,0.0,
2018-05-16, 02:33:06,VALID,914.98,VALID,0.0,VALID,98.906,VALID,-0.006,VALID,20.738,VALID,129.0,VALID,0.0,
2018-05-16, 02:34:06,VALID,914.972,VALID,0.0,VALID,98.915,VALID,-0.011,VALID,20.731,VALID,137.0,VALID,0.0,
2018-05-16, 02:35:06,VALID,914.974,VALID,0.0,VALID,98.917,VALID,0.003,VALID,20.722,VALID,129.0,VALID,0.0,
2018-05-16, 02:36:06,VALID,914.983,VALID,0.0,VALID,98.911,VALID,-0.005,VALID,20.699,VALID,124.0,VALID,0.0,
2018-05-16, 02:37:06,VALID,914.982,VALID,0.0,VALID,98.919,VALID,-0.0,VALID,20.685,VALID,114.0,VALID,0.0,
2018-05-16, 02:38:06,VALID,914.97,VALID,0.0,VALID,98.932,VALID,-0.002,VALID,20.664,VALID,104.0,VALID,0.0,
2018-05-16, 02:39:06,VALID,914.976,VALID,0.0,VALID,98.874,VALID,-0.005,VALID,20.644,VALID,105.0,VALID,0.0,
2018-05-16, 02:40:06,VALID,914.971,VALID,0.0,VALID,98.929,VALID,-0.012,VALID,20.648,VALID,98.0,VALID,0.0,
2018-05-16, 02:41:06,VALID,914.966,VALID,0.0,VALID,98.884,VALID,-0.003,VALID,20.618,VALID,92.0,VALID,0.0,
2018-05-16, 02:42:06,VALID,914.945,VALID,0.0,VALID,98.883,VALID,-0.017,VALID,20.589,VALID,88.0,VALID,0.0,
2018-05-16, 02:43:06,VALID,914.922,VALID,0.0,VALID,98.907,VALID,-0.01,VALID,20.586,VALID,89.0,VALID,0.0,
2018-05-16, 02:44:06,VALID,914.914,VALID,0.0,VALID,98.933,VALID,-0.015,VALID,20.591,VALID,92.0,VALID,0.0,
2018-05-16, 02:45:06,VALID,914.891,VALID,0.0,VALID,98.929,VALID,0.0,VALID,20.573,VALID,84.0,VALID,0.0,
2018-05-16, 02:46:06,VALID,914.855,VALID,0.0,VALID,98.845,VALID,0.016,VALID,20.515,VALID,68.0,VALID,0.0,
2018-05-16, 02:47:06,VALID,914.834,VALID,0.0,VALID,98.912,VALID,0.018,VALID,20.508,VALID,87.0,VALID,0.0,
2018-05-16, 02:48:06,VALID,914.812,VALID,0.0,VALID,98.939,VALID,0.0,VALID,20.536,VALID,104.0,VALID,0.0,
2018-05-16, 02:49:06,VALID,914.78,VALID,0.0,VALID,98.949,VALID,-0.012,VALID,20.554,VALID,108.0,VALID,0.0,
2018-05-16, 02:50:06,VALID,914.748,VALID,0.0,VALID,98.976,VALID,-0.014,VALID,20.588,VALID,110.0,VALID,0.0,
2018-05-16, 02:51:06,VALID,914.706,VALID,0.0,VALID,98.952,VALID,-0.021,VALID,20.609,VALID,94.0,VALID,0.0,
2018-05-16, 02:52:06,VALID,914.707,VALID,0.0,VALID,98.967,VALID,-0.021,VALID,20.627,VALID,125.0,VALID,0.0,
2018-05-16, 02:53:06,VALID,914.694,VALID,0.0,VALID,98.972,VALID,-0.017,VALID,20.673,VALID,130.0,VALID,0.0,
2018-05-16, 02:54:06,VALID,914.696,VALID,0.0,VALID,98.995,VALID,-0.022,VALID,20.702,VALID,77.0,VALID,0.0,
2018-05-16, 02:55:06,VALID,914.693,VALID,0.0,VALID,98.979,VALID,-0.013,VALID,20.697,VALID,50.0,VALID,0.0,
2018-05-16, 02:56:06,VALID,914.703,VALID,0.0,VALID,98.925,VALID,-0.02,VALID,20.638,VALID,80.0,VALID,0.0,
2018-05-16, 02:57:06,VALID,914.708,VALID,0.0,VALID,98.933,VALID,-0.017,VALID,20.617,VALID,121.0,VALID,0.0,
2018-05-16, 02:58:06,VALID,914.707,VALID,0.0,VALID,98.966,VALID,-0.015,VALID,20.649,VALID,151.0,VALID,0.0,
2018-05-16, 02:59:06,VALID,914.697,VALID,0.0,VALID,98.988,VALID,-0.02,VALID,20.685,VALID,152.0,VALID,0.0,
2018-05-16, 03:00:06,VALID,914.698,VALID,0.0,VALID,98.989,VALID,-0.021,VALID,20.716,VALID,177.0,VALID,0.0,
2018-05-16, 03:01:06,VALID,914.688,VALID,0.0,VALID,98.988,VALID,-0.024,VALID,20.701,VALID,168.0,VALID,0.0,
2018-05-16, 03:02:06,VALID,914.671,VALID,0.0,VALID,98.977,VALID,-0.017,VALID,20.696,VALID,155.0,VALID,0.0,
2018-05-16, 03:03:06,VALID,914.655,VALID,0.0,VALID,98.98,VALID,0.017,VALID,20.694,VALID,167.0,VALID,0.0,
2018-05-16, 03:04:06,VALID,914.635,VALID,0.0,VALID,98.96,VALID,0.019,VALID,20.686,VALID,177.0,VALID,0.0,
2018-05-16, 03:05:06,VALID,914.598,VALID,0.0,VALID,98.957,VALID,0.017,VALID,20.664,VALID,165.0,VALID,0.0,
2018-05-16, 03:06:06,VALID,914.58,VALID,0.0,VALID,98.918,VALID,0.008,VALID,20.658,VALID,174.0,VALID,0.0,
2018-05-16, 03:07:06,VALID,914.554,VALID,0.0,VALID,98.88,VALID,0.002,VALID,20.657,VALID,151.0,VALID,0.0,
2018-05-16, 03:08:06,VALID,914.539,VALID,0.0,VALID,98.844,VALID,0.008,VALID,20.675,VALID,170.0,VALID,0.0,
2018-05-16, 03:09:06,VALID,914.518,VALID,0.0,VALID,98.803,VALID,0.017,VALID,20.694,VALID,154.0,VALID,0.0,
2018-05-16, 03:10:06,VALID,914.509,VALID,0.0,VALID,98.73,VALID,0.018,VALID,20.713,VALID,163.0,VALID,0.0,
2018-05-16, 03:11:06,VALID,914.492,VALID,0.0,VALID,98.653,VALID,-0.001,VALID,20.733,VALID,155.0,VALID,0.0,
2018-05-16, 03:12:06,VALID,914.49,VALID,0.0,VALID,98.499,VALID,0.002,VALID,20.743,VALID,102.0,VALID,0.0,
2018-05-16, 03:13:06,VALID,914.482,VALID,0.0,VALID,98.262,VALID,0.014,VALID,20.741,VALID,84.0,VALID,0.0,
2018-05-16, 03:14:06,VALID,914.46,VALID,0.0,VALID,98.058,VALID,0.021,VALID,20.728,VALID,93.0,VALID,0.0,
2018-05-16, 03:15:06,VALID,914.461,VALID,0.0,VALID,97.849,VALID,0.016,VALID,20.746,VALID,116.0,VALID,0.0,
2018-05-16, 03:16:06,VALID,914.454,VALID,0.0,VALID,97.51,VALID,0.013,VALID,20.756,VALID,127.0,VALID,0.0,
2018-05-16, 03:17:06,VALID,914.44,VALID,0.0,VALID,96.745,VALID,0.013,VALID,20.754,VALID,121.0,VALID,0.0,
2018-05-16, 03:18:06,VALID,914.421,VALID,0.0,VALID,95.185,VALID,-0.005,VALID,20.913,VALID,161.0,VALID,0.0,
2018-05-16, 03:19:06,VALID,914.414,VALID,0.0,VALID,93.772,VALID,-0.006,VALID,21.097,VALID,144.0,VALID,0.0,
2018-05-16, 03:20:06,VALID,914.42,VALID,0.0,VALID,92.36,VALID,-0.008,VALID,21.23,VALID,124.0,VALID,0.0,
2018-05-16, 03:21:06,VALID,914.424,VALID,0.0,VALID,91.806,VALID,-0.009,VALID,21.334,VALID,133.0,VALID,0.0,
2018-05-16, 03:22:06,VALID,914.405,VALID,0.0,VALID,90.766,VALID,-0.029,VALID,21.381,VALID,99.0,VALID,0.0,
2018-05-16, 03:23:06,VALID,914.386,VALID,0.0,VALID,89.744,VALID,-0.019,VALID,21.529,VALID,123.0,VALID,0.0,
2018-05-16, 03:24:06,VALID,914.372,VALID,0.0,VALID,89.694,VALID,0.002,VALID,21.615,VALID,134.0,VALID,0.0,
2018-05-16, 03:25:06,VALID,914.367,VALID,0.0,VALID,89.857,VALID,-0.008,VALID,21.638,VALID,145.0,VALID,0.0,
2018-05-16, 03:26:06,VALID,914.337,VALID,0.0,VALID,89.84,VALID,-0.01,VALID,21.649,VALID,124.0,VALID,0.0,
2018-05-16, 03:27:06,VALID,914.317,VALID,0.0,VALID,90.171,VALID,-0.013,VALID,21.632,VALID,131.0,VALID,0.0,
2018-05-16, 03:28:06,VALID,914.287,VALID,0.0,VALID,90.66,VALID,-0.012,VALID,21.591,VALID,109.0,VALID,0.0,
2018-05-16, 03:29:06,VALID,914.275,VALID,0.0,VALID,91.704,VALID,-0.005,VALID,21.472,VALID,103.0,VALID,0.0,
2018-05-16, 03:30:06,VALID,914.246,VALID,0.0,VALID,92.231,VALID,-0.014,VALID,21.342,VALID,98.0,VALID,0.0,
2018-05-16, 03:31:06,VALID,914.217,VALID,0.0,VALID,92.718,VALID,-0.024,VALID,21.222,VALID,99.0,VALID,0.0,
2018-05-16, 03:32:07,VALID,914.191,VALID,0.0,VALID,93.333,VALID,-0.009,VALID,21.13,VALID,116.0,VALID,0.0,
2018-05-16, 03:33:07,VALID,914.158,VALID,0.0,VALID,93.698,VALID,0.002,VALID,21.069,VALID,112.0,VALID,0.0,
2018-05-16, 03:34:07,VALID,914.141,VALID,0.0,VALID,93.81,VALID,-0.011,VALID,21.057,VALID,126.0,VALID,0.0,
2018-05-16, 03:35:07,VALID,914.135,VALID,0.0,VALID,93.541,VALID,-0.009,VALID,21.094,VALID,161.0,VALID,0.0,
2018-05-16, 03:36:07,VALID,914.117,VALID,0.0,VALID,92.918,VALID,-0.014,VALID,21.181,VALID,186.0,VALID,0.0,
2018-05-16, 03:37:07,VALID,914.115,VALID,0.0,VALID,92.656,VALID,-0.01,VALID,21.22,VALID,172.0,VALID,0.0,
2018-05-16, 03:38:07,VALID,914.111,VALID,0.0,VALID,92.462,VALID,-0.003,VALID,21.245,VALID,174.0,VALID,0.0,
2018-05-16, 03:39:07,VALID,914.124,VALID,0.0,VALID,92.396,VALID,-0.0,VALID,21.251,VALID,172.0,VALID,0.0,
2018-05-16, 03:40:07,VALID,914.098,VALID,0.0,VALID,92.399,VALID,0.0,VALID,21.265,VALID,205.0,VALID,0.0,
2018-05-16, 03:41:07,VALID,914.094,VALID,0.0,VALID,92.262,VALID,0.004,VALID,21.301,VALID,212.0,VALID,0.0,
2018-05-16, 03:42:07,VALID,914.088,VALID,0.0,VALID,92.504,VALID,-0.003,VALID,21.301,VALID,212.0,VALID,0.0,